Temperature
2 3 2 3 3 2 2 2 2 3 2 2 1 1 0 0 0 -0 -1 -1 -1 -1 -1 -1 -1 -2 -2 -2 -2 -2 -3 -3 -3 -3 -3 -3 -4 -4 -4 -4 -4 -4 -4 -4
1 2 2 2 2 2 2 2 2 2 2 1 1 0 -0 -1 -1 -1 -1 -1 -1 -1 -1 -2 -2 -2 -2 -2 -3 -3 -3 -3 -3 -4 -4 -4 -4 -4 -4 -4 -4 -5 -5 -5
0 1 1 1 1 2 1 0 1 1 1 0 -1 -1 -1 -1 -1 -2 -2 -2 -2 -2 -2 -2 -2 -2 -3 -3 -3 -3 -4 -4 -4 -4 -4 -4 -5 -5 -5 -5 -5 -5 -5 -5
-1 -0 0 2 1 1 1 0 -0 -0 -0 -1 -1 -1 -1 -1 -1 -2 -2 -2 -2 -2 -2 -2 -3 -3 -3 -3 -4 -4 -4 -4 -4 -5 -5 -5 -5 -5 -5 -6 -6 -6 -6 -6
-1 -1 -0 0 0 -0 -0 -0 -1 -1 -2 -2 -2 -2 -2 -2 -2 -2 -2 -2 -2 -2 -3 -3 -3 -3 -4 -4 -4 -4 -4 -5 -5 -5 -5 -5 -6 -6 -6 -6 -6 -6 -6 -6
-2 -1 -0 1 -0 -1 -0 -1 -1 -2 -3 -3 -2 -3 -3 -3 -2 -2 -3 -3 -3 -3 -3 -4 -4 -4 -4 -5 -5 -5 -5 -5 -5 -6 -6 -6 -6 -6 -7 -7 -7 -7 -7 -7
-2 -2 -1 -1 -2 -1 -0 -1 -2 -2 -3 -3 -3 -3 -3 -3 -3 -3 -3 -4 -4 -4 -4 -4 -5 -5 -5 -5 -5 -5 -6 -6 -6 -6 -6 -7 -7 -7 -7 -7 -7 -7 -7 -7
-3 -2 -2 -2 -2 -2 -2 -2 -3 -3 -3 -4 -4 -4 -4 -4 -4 -4 -4 -5 -5 -5 -5 -5 -5 -5 -5 -6 -6 -6 -6 -7 -7 -7 -7 -7 -7 -7 -8 -8 -8 -8 -8 -8
-2 -2 -3 -3 -3 -3 -2 -3 -3 -3 -4 -4 -5 -5 -5 -5 -5 -5 -5 -5 -5 -5 -6 -6 -6 -6 -6 -6 -7 -7 -7 -7 -7 -8 -8 -8 -8 -8 -8 -8 -8 -8 -9 -9
-4 -4 -4 -4 -4 -3 -3 -3 -4 -4 -4 -5 -5 -6 -6 -6 -6 -6 -6 -6 -6 -6 -6 -6 -7 -7 -7 -7 -7 -8 -8 -8 -8 -8 -8 -8 -9 -9 -9 -9 -9 -9 -9 -9
-4 -5 -5 -4 -4 -4 -4 -4 -5 -5 -5 -6 -6 -6 -6 -7 -7 -7 -7 -7 -7 -7 -7 -7 -7 -8 -8 -8 -8 -8 -8 -9 -9 -9 -9 -9 -9 -9 -10 -10 -10 -10 -10 -10
-4 -5 -5 -5 -5 -5 -5 -5 -6 -6 -6 -6 -6 -7 -7 -7 -7 -8 -8 -8 -8 -8 -8 -8 -8 -8 -9 -9 -9 -9 -9 -9 -9 -10 -10 -10 -10 -10 -10 -10 -10 -10 -10 -10
-5 -5 -6 -6 -6 -6 -6 -6 -7 -7 -7 -7 -7 -8 -8 -8 -8 -8 -8 -8 -8 -8 -9 -9 -9 -9 -9 -9 -9 -10 -10 -10 -10 -10 -10 -11 -11 -11 -10 -10 -10 -10 -11 -11
-6 -6 -7 -7 -7 -7 -7 -7 -7 -8 -8 -8 -8 -8 -8 -9 -9 -9 -9 -9 -9 -9 -9 -9 -9 -10 -10 -10 -10 -10 -10 -10 -10 -11 -11 -11 -11 -11 -11 -11 -11 -11 -11 -11
-7 -7 -7 -8 -8 -8 -8 -8 -8 -8 -8 -9 -9 -9 -9 -9 -9 -9 -10 -10 -10 -10 -10 -10 -10 -10 -10 -10 -11 -11 -11 -11 -11 -11 -11 -12 -12 -12 -12 -12 -12 -12 -12 -12
-8 -8 -8 -8 -9 -9 -9 -9 -9 -9 -9 -9 -9 -9 -10 -10 -10 -10 -10 -10 -10 -10 -10 -11 -11 -11 -11 -11 -11 -11 -11 -12 -12 -12 -12 -12 -12 -12 -12 -12 -13 -13 -13 -12
-9 -9 -9 -9 -9 -9 -10 -9 -9 -9 -10 -10 -10 -10 -10 -10 -10 -10 -10 -11 -11 -11 -11 -11 -11 -11 -11 -12 -12 -12 -12 -12 -12 -12 -12 -13 -13 -13 -13 -13 -13 -13 -13 -13
-9 -9 -10 -10 -10 -10 -10 -10 -10 -10 -10 -10 -10 -10 -10 -11 -11 -11 -11 -11 -11 -11 -11 -12 -12 -12 -12 -12 -12 -12 -12 -13 -13 -13 -13 -13 -13 -13 -13 -13 -13 -13 -13 -13
-10 -10 -10 -10 -10 -10 -10 -10 -10 -10 -11 -11 -11 -11 -11 -11 -11 -11 -12 -12 -12 -12 -12 -12 -12 -12 -12 -13 -13 -13 -13 -13 -13 -13 -13 -13 -13 -13 -14 -14 -14 -14 -14 -14
-10 -10 -10 -10 -10 -11 -11 -11 -11 -11 -11 -11 -11 -11 -11 -12 -12 -12 -12 -12 -12 -12 -12 -13 -13 -13 -13 -13 -13 -13 -14 -14 -14 -14 -14 -14 -14 -14 -14 -14 -14 -14 -14 -14
-10 -10 -11 -11 -11 -11 -11 -11 -11 -11 -11 -11 -11 -12 -12 -12 -12 -13 -13 -13 -13 -13 -13 -13 -13 -13 -13 -14 -14 -14 -14 -14 -14 -14 -14 -14 -14 -14 -14 -14 -14 -14 -14 -14
-11 -11 -11 -11 -11 -11 -11 -12 -12 -12 -12 -12 -12 -12 -12 -12 -13 -13 -13 -13 -13 -13 -13 -13 -14 -14 -14 -14 -14 -14 -14 -14 -14 -14 -14 -14 -15 -15 -15 -15 -15 -15 -15 -15
-11 -11 -11 -11 -12 -12 -12 -12 -12 -12 -12 -12 -12 -13 -13 -13 -13 -13 -13 -13 -14 -14 -14 -14 -14 -14 -15 -14 -14 -14 -14 -15 -15 -15 -15 -15 -15 -15 -15 -15 -15 -15 -15 -15
-12 -12 -12 -12 -12 -12 -12 -12 -12 -12 -13 -13 -13 -13 -13 -13 -13 -14 -14 -14 -14 -14 -14 -14 -14 -15 -15 -15 -15 -15 -15 -15 -15 -15 -15 -15 -15 -15 -15 -15 -15 -15 -15 -15
-12 -12 -12 -12 -12 -13 -13 -13 -13 -13 -13 -13 -13 -13 -14 -14 -14 -14 -14 -14 -14 -14 -14 -14 -15 -15 -15 -15 -15 -15 -15 -15 -15 -15 -15 -15 -15 -15 -15 -15 -15 -15 -15 -15
-13 -13 -13 -13 -13 -13 -13 -13 -13 -13 -13 -13 -13 -14 -14 -14 -14 -14 -14 -14 -14 -15 -15 -15 -15 -15 -15 -15 -15 -15 -15 -15 -15 -15 -15 -15 -15 -15 -15 -15 -15 -15 -15 -15
-13 -13 -13 -13 -13 -13 -13 -14 -14 -14 -14 -14 -14 -14 -14 -14 -14 -14 -14 -15 -15 -15 -15 -15 -15 -15 -15 -15 -15 -15 -15 -15 -15 -15 -15 -15 -16 -16 -16 -16 -16 -15 -15 -15
Wind_Speed
7 6 4 7 8 8 11 11 10 10 9 9 7 5 3 3 4 4 4 5 5 5 4 3 3 3 3 3 2 2 2 2 2 2 2 2 2 2 2 2 2 3 3 4
5 6 6 8 9 11 12 10 11 9 9 6 3 1 1 3 5 5 5 4 4 4 4 4 4 3 3 2 2 2 2 2 1 1 1 1 1 1 1 2 2 3 3 4
4 3 3 8 9 10 7 6 7 11 9 3 2 2 3 4 4 5 4 4 4 4 4 3 3 3 3 3 2 1 1 1 1 1 1 1 1 1 2 2 2 3 4 4
2 1 6 7 2 5 6 6 5 4 3 3 3 2 0 1 3 3 2 3 3 2 2 2 2 2 2 2 2 1 1 1 1 1 1 1 1 2 2 2 3 3 4 5
3 4 7 6 3 2 4 5 3 4 3 1 1 2 2 1 2 2 2 2 2 2 2 2 2 2 2 2 1 1 1 1 1 1 1 1 2 2 3 3 3 4 4 4
3 4 6 5 3 2 2 4 2 2 4 3 2 1 4 1 1 2 2 2 2 2 2 2 1 2 2 1 1 1 1 1 1 1 2 2 2 3 3 3 3 4 5 4
6 6 7 5 3 1 3 5 2 1 3 3 3 4 2 1 2 2 2 2 2 3 2 1 1 2 2 1 1 2 2 1 1 1 1 2 2 2 2 2 3 3 5 5
5 5 8 2 1 3 4 1 0 0 1 2 1 2 2 2 2 2 3 2 2 2 2 2 2 2 1 0 1 2 1 1 1 2 2 2 1 2 2 2 3 3 4 5
6 5 2 0 1 2 0 0 0 0 1 3 3 2 1 1 1 2 2 2 2 2 2 2 1 1 1 1 1 1 1 2 2 2 2 2 1 2 2 2 2 3 3 4
2 3 2 1 2 3 2 1 1 2 2 3 3 2 1 1 1 2 2 2 2 2 2 1 2 1 0 0 1 1 1 1 2 2 2 2 2 2 2 2 3 3 4 4
3 2 2 2 2 1 2 3 4 3 3 2 3 2 1 1 1 1 1 1 1 1 1 1 2 2 2 1 1 1 1 1 2 2 2 2 3 2 3 3 3 4 3 4
4 2 2 2 1 2 3 2 3 3 3 2 2 2 2 1 1 1 1 1 2 1 1 1 1 2 2 1 1 1 1 2 2 2 2 2 3 4 6 6 8 8 8 7
1 2 0 1 2 3 2 2 3 2 2 2 2 2 2 1 1 1 1 2 1 1 1 1 1 1 2 1 1 0 1 2 2 2 2 3 3 3 4 6 8 9 10 10
2 2 2 2 2 3 3 3 3 3 3 2 2 2 2 2 2 2 1 1 1 1 1 1 1 2 2 1 1 1 1 2 2 2 2 2 3 3 3 4 5 5 8 11
5 3 1 1 3 3 3 3 4 3 3 3 3 3 2 2 1 2 2 1 2 1 1 1 1 2 2 1 1 1 1 1 2 2 2 2 3 3 3 4 4 5 5 7
3 3 3 3 3 3 3 3 2 1 2 2 2 2 2 1 1 2 2 1 1 1 2 2 2 2 1 1 1 1 2 3 3 2 2 3 3 3 3 4 4 4 5 5
2 1 1 1 2 2 1 1 0 0 1 1 1 1 2 2 2 2 3 2 1 2 2 2 2 2 2 2 1 1 2 3 4 3 3 3 3 4 4 4 4 5 5 7
1 1 1 1 1 0 1 1 1 1 1 1 1 1 1 1 1 2 3 2 2 3 3 2 2 2 2 2 2 1 2 2 2 3 3 3 4 3 4 4 5 5 5 7
3 2 2 1 0 1 0 1 1 1 1 0 1 1 1 1 1 2 2 2 2 3 3 3 4 3 2 3 3 1 2 2 3 3 3 5 5 4 4 4 5 5 5 5
3 3 2 2 2 1 0 1 1 1 1 0 0 1 1 2 2 2 2 2 2 3 3 4 3 2 2 3 4 1 1 2 3 3 3 3 4 4 4 5 5 5 5 5
2 2 2 2 2 1 0 0 0 0 1 0 0 1 2 2 2 1 1 2 3 3 3 4 2 2 3 3 3 1 1 2 3 3 3 4 4 4 4 5 5 5 5 5
2 1 1 1 1 1 2 1 0 0 1 1 1 1 1 2 2 2 2 3 4 5 3 2 2 4 4 2 1 1 2 2 3 3 3 4 4 4 5 5 5 5 5 6
2 1 1 1 1 1 2 1 1 1 1 1 2 2 2 2 2 2 3 3 3 5 3 2 5 6 5 2 1 1 2 3 3 3 4 4 4 4 5 5 5 5 6 6
1 2 2 2 1 1 2 2 2 1 2 2 2 3 2 2 3 2 3 5 6 6 3 5 7 6 5 1 2 2 3 3 3 4 4 4 4 4 5 5 5 6 6 7
1 1 1 1 1 2 2 2 2 2 2 2 3 3 3 2 3 3 3 3 5 5 3 4 6 6 3 2 3 3 3 4 4 4 3 4 4 5 5 5 5 6 6 7
2 2 2 2 2 2 2 1 2 2 2 3 3 3 3 2 3 3 3 3 4 5 3 3 4 4 3 3 3 4 4 5 5 4 4 5 5 6 6 6 7 7 7 7
2 2 2 2 2 2 2 2 2 3 3 3 4 4 3 3 3 3 3 3 3 3 3 3 3 3 3 3 4 4 4 4 4 5 5 5 5 5 6 7 7 7 8 8
Wind_Direction
258 259 230 232 234 211 208 214 222 238 234 250 244 235 227 203 173 156 160 162 164 166 167 170 173 177 177 181 187 184 183 198 219 232 237 242 243 250 255 253 261 265 272 278
272 259 249 255 245 226 224 228 237 251 258 256 259 163 160 174 166 169 177 177 171 169 171 176 179 180 173 180 188 177 186 209 226 225 241 251 258 261 267 273 278 283 280 280
259 288 313 260 235 218 214 217 211 233 246 239 254 222 203 191 179 185 187 179 179 184 184 187 189 179 181 184 166 162 183 201 213 210 235 257 268 271 272 276 283 282 282 279
243 349 240 248 227 205 213 240 230 239 256 220 212 231 197 168 171 182 180 178 183 178 176 180 164 150 150 143 146 164 186 209 224 232 254 265 266 273 283 286 278 277 278 275
193 238 271 289 270 193 201 257 243 227 228 226 138 46 353 354 142 177 184 180 175 166 149 133 137 134 121 124 136 165 224 248 256 252 256 260 263 271 284 286 283 280 280 276
189 217 244 258 281 286 147 267 263 194 199 204 141 199 255 311 78 105 104 102 100 90 86 99 107 121 125 136 152 253 272 278 274 263 247 250 257 266 281 280 283 288 292 286
210 230 259 271 291 45 172 263 295 204 196 185 213 223 191 103 64 82 91 87 94 93 90 93 100 111 120 125 270 296 312 317 312 296 275 262 264 273 276 286 293 292 294 293
188 217 252 296 98 181 235 304 328 153 159 147 130 106 102 92 82 79 70 64 79 84 57 40 77 111 114 296 322 347 353 344 332 321 305 305 297 299 291 279 286 287 294 299
198 221 286 293 229 290 98 123 312 138 104 130 129 134 107 89 88 80 69 58 65 87 63 33 42 115 144 315 358 17 13 352 338 333 328 324 303 295 299 288 284 292 293 299
237 266 269 311 338 5 35 74 66 105 121 127 132 138 121 104 78 62 55 56 67 79 67 17 5 19 32 353 35 41 5 336 328 334 332 330 322 304 295 287 286 291 294 298
243 269 327 350 357 19 58 70 74 73 80 108 124 123 125 115 98 78 44 33 62 82 74 356 7 14 8 31 63 35 348 331 332 332 328 326 321 308 305 283 283 293 292 295
242 253 232 260 30 60 73 64 78 81 60 58 98 116 102 100 89 68 40 38 48 47 35 8 14 5 356 11 64 65 347 337 330 328 326 326 326 326 323 325 322 322 320 313
277 342 42 77 57 54 62 54 57 68 96 83 71 104 109 94 68 55 40 31 22 5 1 5 9 356 345 350 9 135 274 305 306 319 322 321 321 324 324 327 328 331 331 328
23 47 52 38 34 37 56 64 70 62 61 80 84 81 81 73 52 41 14 346 347 5 358 12 2 333 322 326 337 324 297 302 314 302 305 307 307 308 310 314 322 325 329 330
7 25 84 64 54 54 61 72 72 59 52 47 57 63 62 53 21 349 338 348 7 3 352 353 338 319 320 322 332 320 314 305 304 300 303 304 304 307 308 308 310 313 319 326
4 40 65 70 60 48 49 57 67 43 42 40 47 37 34 32 6 350 349 1 7 326 317 317 308 308 320 329 337 329 309 312 321 312 310 311 309 307 308 308 307 309 312 316
46 30 33 31 15 13 13 2 4 29 32 29 6 14 28 29 20 5 353 350 331 302 299 296 299 312 319 316 309 306 304 304 316 316 304 303 303 301 301 302 302 303 304 310
351 295 225 202 212 299 349 359 8 4 342 330 358 32 30 20 347 329 330 342 353 346 332 320 311 305 306 308 307 296 291 295 296 294 298 299 300 298 298 297 298 300 303 310
31 36 39 44 68 159 206 293 318 328 334 2 36 359 326 317 310 313 327 341 338 329 318 310 321 337 315 304 317 285 279 287 296 299 299 300 309 305 302 299 297 298 301 306
35 39 44 35 27 63 235 318 350 351 321 269 101 10 341 323 320 321 330 315 286 273 282 299 313 310 303 294 312 289 282 286 291 296 298 295 295 296 297 298 297 297 299 302
25 30 30 25 6 353 328 269 178 311 324 334 206 257 285 300 302 297 304 312 308 298 291 311 328 302 293 295 316 329 308 297 295 292 293 292 293 295 296 298 301 301 300 301
360 6 354 352 360 345 339 336 303 300 337 343 332 306 305 308 310 308 284 265 284 307 325 307 296 299 310 329 15 331 305 296 291 290 288 288 289 290 292 295 297 299 301 301
341 339 329 318 307 313 340 343 320 294 293 294 292 288 282 282 283 284 297 292 289 303 323 290 299 311 329 19 358 311 299 292 287 285 285 285 285 286 288 291 292 294 296 297
347 336 326 326 351 9 337 321 320 309 287 283 279 277 274 286 292 269 262 293 307 312 312 301 311 318 340 4 309 294 288 287 283 281 283 288 288 287 286 286 288 291 291 292
329 325 333 348 331 303 297 309 320 316 309 302 297 290 275 259 264 283 288 286 300 315 313 310 316 323 332 300 291 285 281 277 278 281 279 284 283 283 283 282 283 286 287 287
328 317 303 289 285 286 289 293 298 299 298 299 299 293 286 280 273 276 283 285 286 306 309 297 299 307 299 287 285 284 282 288 297 294 281 280 279 279 280 282 284 284 284 284
337 332 327 323 313 300 291 284 284 289 288 281 286 290 289 290 285 284 286 288 290 292 289 288 287 286 284 284 286 286 283 281 279 278 278 275 275 275 277 278 281 282 283 283
Height
1481 1479 1480 1479 1478 1479 1481 1479 1480 1473 1472 1468 1468 1467 1467 1468 1468 1469 1470 1471 1472 1473 1475 1476 1477 1478 1479 1480 1481 1482 1482 1482 1482 1483 1483 1483 1482 1482 1481 1481 1480 1479 1478 1477
1482 1477 1478 1476 1474 1474 1473 1473 1472 1470 1469 1465 1465 1466 1466 1467 1467 1468 1469 1469 1470 1472 1472 1473 1474 1475 1476 1477 1478 1478 1478 1478 1479 1479 1479 1478 1478 1477 1477 1476 1476 1475 1474 1473
1484 1479 1477 1476 1469 1467 1468 1468 1468 1467 1464 1464 1465 1465 1465 1465 1466 1466 1467 1467 1468 1469 1470 1470 1471 1472 1473 1474 1474 1475 1475 1475 1475 1475 1475 1474 1474 1473 1473 1472 1471 1470 1469 1468
1486 1483 1481 1465 1462 1462 1463 1463 1464 1462 1462 1462 1462 1463 1464 1464 1464 1465 1465 1466 1467 1467 1468 1468 1469 1470 1470 1471 1471 1471 1471 1471 1471 1471 1471 1470 1470 1469 1469 1468 1467 1466 1465 1464
1487 1484 1474 1466 1462 1462 1463 1463 1461 1461 1461 1462 1461 1462 1463 1463 1463 1463 1464 1464 1465 1466 1466 1466 1467 1467 1468 1468 1468 1468 1468 1467 1467 1467 1467 1466 1466 1466 1465 1464 1464 1463 1461 1460
1485 1482 1475 1463 1461 1459 1461 1462 1459 1459 1460 1461 1461 1464 1463 1462 1462 1462 1463 1463 1464 1464 1464 1465 1465 1465 1465 1465 1465 1465 1464 1464 1464 1464 1463 1463 1463 1462 1462 1461 1460 1459 1457 1456
1481 1479 1470 1463 1461 1460 1465 1461 1459 1458 1458 1459 1459 1460 1460 1460 1460 1460 1461 1461 1462 1462 1462 1463 1463 1463 1463 1463 1462 1462 1462 1462 1461 1461 1461 1460 1460 1459 1458 1457 1456 1455 1453 1452
1478 1478 1471 1462 1461 1463 1461 1459 1458 1457 1457 1458 1458 1458 1458 1458 1459 1459 1459 1460 1460 1460 1460 1461 1461 1461 1460 1460 1460 1460 1460 1459 1459 1458 1458 1457 1456 1456 1455 1454 1452 1451 1449 1448
1468 1467 1463 1461 1460 1459 1459 1458 1457 1457 1457 1457 1457 1457 1457 1457 1458 1458 1458 1458 1459 1458 1459 1459 1459 1459 1458 1458 1458 1457 1457 1457 1456 1456 1455 1454 1453 1452 1451 1450 1449 1447 1446 1444
1465 1462 1461 1460 1459 1458 1458 1458 1457 1457 1457 1456 1456 1456 1456 1456 1456 1457 1457 1457 1457 1457 1457 1457 1457 1457 1457 1456 1456 1455 1455 1454 1454 1453 1452 1452 1451 1450 1448 1447 1446 1444 1443 1441
1463 1461 1460 1459 1459 1458 1458 1458 1457 1457 1456 1456 1455 1455 1455 1455 1455 1455 1456 1456 1456 1456 1455 1455 1455 1455 1455 1454 1454 1453 1453 1452 1451 1451 1450 1449 1448 1447 1446 1444 1443 1442 1440 1438
1462 1461 1461 1460 1459 1459 1458 1457 1457 1456 1456 1456 1456 1455 1455 1455 1455 1454 1454 1454 1454 1454 1454 1454 1454 1453 1453 1453 1452 1451 1451 1450 1449 1448 1448 1447 1445 1444 1443 1442 1440 1439 1437 1436
1460 1459 1459 1458 1458 1458 1457 1457 1457 1456 1456 1455 1455 1455 1454 1454 1454 1454 1453 1453 1453 1453 1452 1452 1452 1452 1451 1451 1450 1450 1449 1448 1447 1446 1445 1444 1443 1441 1440 1439 1437 1436 1434 1432
1459 1459 1458 1458 1458 1457 1457 1457 1456 1456 1455 1455 1454 1454 1454 1453 1453 1453 1452 1452 1452 1451 1451 1451 1450 1450 1450 1449 1449 1448 1447 1446 1446 1445 1444 1442 1441 1439 1438 1435 1433 1431 1430 1429
1458 1458 1458 1457 1457 1457 1457 1456 1456 1455 1454 1454 1454 1453 1453 1452 1452 1452 1451 1451 1450 1450 1450 1449 1448 1448 1448 1447 1446 1446 1445 1444 1444 1443 1442 1440 1439 1437 1436 1434 1431 1429 1427 1425
1458 1458 1457 1457 1456 1456 1456 1456 1455 1454 1454 1453 1453 1453 1452 1452 1451 1451 1450 1450 1449 1448 1448 1447 1446 1446 1445 1445 1444 1444 1443 1443 1442 1441 1439 1438 1436 1435 1433 1431 1429 1427 1424 1422
1458 1457 1457 1456 1456 1456 1456 1455 1455 1454 1453 1453 1452 1452 1451 1451 1450 1449 1449 1448 1448 1447 1446 1445 1445 1444 1444 1443 1442 1442 1441 1440 1439 1438 1437 1436 1434 1432 1430 1428 1426 1424 1422 1420
1459 1458 1457 1456 1455 1455 1455 1455 1454 1454 1453 1452 1452 1451 1450 1450 1449 1448 1448 1447 1446 1445 1445 1444 1443 1442 1442 1441 1440 1440 1439 1438 1437 1436 1434 1433 1431 1430 1428 1426 1423 1421 1419 1417
1458 1457 1456 1456 1456 1455 1455 1454 1454 1453 1453 1452 1451 1450 1450 1449 1448 1447 1447 1446 1445 1444 1443 1442 1441 1441 1440 1439 1438 1437 1436 1435 1434 1433 1431 1430 1428 1427 1425 1423 1420 1418 1416 1413
1458 1457 1456 1456 1455 1455 1454 1454 1453 1452 1452 1451 1450 1450 1449 1448 1447 1446 1445 1444 1443 1442 1441 1440 1439 1439 1438 1437 1436 1435 1434 1433 1431 1430 1428 1426 1425 1423 1421 1419 1417 1415 1412 1410
1458 1457 1456 1455 1455 1454 1454 1453 1452 1451 1451 1450 1449 1448 1448 1447 1446 1445 1444 1443 1442 1441 1440 1439 1438 1436 1435 1434 1433 1432 1431 1429 1428 1426 1425 1423 1421 1420 1418 1416 1414 1411 1409 1407
1457 1456 1456 1455 1454 1453 1453 1452 1451 1451 1450 1449 1448 1447 1446 1445 1444 1443 1442 1441 1440 1439 1437 1436 1435 1434 1433 1432 1430 1429 1427 1426 1424 1423 1421 1419 1418 1416 1414 1412 1410 1408 1405 1403
1457 1456 1455 1454 1453 1452 1452 1451 1450 1450 1449 1448 1447 1445 1444 1443 1442 1441 1440 1439 1437 1436 1435 1434 1433 1432 1430 1429 1427 1426 1424 1422 1421 1419 1418 1416 1414 1412 1410 1408 1406 1404 1402 1399
1457 1455 1454 1453 1453 1451 1450 1450 1449 1448 1447 1446 1445 1444 1443 1441 1440 1439 1438 1436 1435 1434 1432 1431 1430 1429 1427 1425 1424 1422 1420 1419 1417 1415 1414 1412 1410 1408 1406 1404 1402 1399 1397 1395
1456 1454 1453 1452 1451 1450 1449 1448 1448 1447 1446 1445 1444 1442 1441 1440 1438 1437 1435 1434 1432 1431 1429 1428 1427 1425 1424 1422 1420 1418 1417 1415 1413 1411 1409 1407 1405 1403 1401 1399 1397 1395 1393 1390
1454 1453 1452 1451 1450 1449 1448 1447 1446 1445 1444 1442 1441 1440 1439 1437 1436 1434 1433 1431 1430 1428 1427 1425 1423 1422 1420 1418 1417 1415 1413 1411 1409 1407 1405 1403 1401 1399 1397 1395 1392 1390 1388 1386
1453 1452 1450 1449 1448 1447 1446 1445 1444 1442 1441 1440 1439 1437 1436 1434 1433 1432 1430 1428 1427 1425 1423 1422 1420 1418 1416 1415 1413 1411 1409 1407 1404 1402 1400 1398 1396 1394 1392 1390 1388 1385 1383 1381